RH
83 89 88 81 78 79 73 59 62 76 82 89 90 79 79 88 88 67 42 26 11 3 3 3 2 2 3 3 3 3 3 3 3 3 3 3 4 4 4 4 4 5 5 5 5 5 5 5 5 5 5 5 5 6 5 6 6 6 6 5 6 6 6 5 5 5 5 6 6 6 6 6 7 7 8 8 9 9 9 10 9 9 9 9 10 11 12 12
90 93 96 92 82 84 91 79 71 82 86 91 96 90 89 92 82 53 32 20 5 2 3 3 3 2 3 3 3 3 3 3 3 3 3 3 4 4 4 4 5 5 5 5 5 5 5 5 5 6 6 6 6 6 6 6 6 6 6 6 6 7 7 7 6 6 6 6 6 6 6 7 7 8 8 9 9 10 10 10 10 10 10 10 11 12 12 12
97 96 97 95 90 91 97 89 82 85 84 92 96 93 97 90 69 44 27 13 3 3 3 2 3 2 3 3 3 3 3 3 3 3 3 4 4 4 4 4 5 5 5 5 5 6 6 6 6 6 6 6 6 7 7 6 7 6 7 7 7 7 7 8 8 7 7 7 7 6 7 7 8 8 9 10 10 10 11 11 10 10 11 11 11 12 13 13
95 95 98 95 94 95 97 92 86 84 81 92 96 92 96 79 52 37 21 8 3 4 3 3 3 2 3 3 4 3 3 3 3 3 3 4 4 4 4 5 5 5 6 6 6 6 6 6 6 7 7 7 7 7 7 7 7 7 7 7 7 8 8 8 8 8 8 7 7 7 7 8 9 9 9 10 10 11 11 11 11 11 11 12 12 13 14 14
90 88 88 90 95 94 94 90 82 79 81 94 97 91 87 65 42 29 14 5 4 3 3 3 2 3 3 3 4 3 3 3 3 3 3 4 4 4 5 5 6 6 7 7 7 7 7 7 7 8 8 8 8 8 9 8 8 8 8 8 8 8 8 8 8 8 8 7 8 8 8 9 9 10 10 10 10 11 11 11 12 12 12 13 13 14 15 15
89 87 81 82 91 91 85 80 76 80 89 98 96 85 72 52 37 23 9 4 4 4 4 3 3 3 3 3 3 3 3 3 3 4 3 4 4 5 5 6 7 7 8 8 8 8 8 8 8 9 8 9 9 9 10 9 9 9 9 9 9 9 8 8 8 8 8 8 9 8 9 9 9 10 10 10 11 11 12 12 12 12 13 13 14 14 15 16
88 92 88 82 84 85 81 79 82 88 95 99 92 77 59 42 30 16 6 4 4 4 4 3 3 3 3 3 3 3 3 3 3 4 4 4 4 5 6 7 8 8 9 9 9 9 9 9 9 9 9 9 9 9 10 10 9 9 9 9 9 8 8 8 8 8 9 9 8 8 8 8 8 9 9 10 11 11 12 12 12 13 13 14 14 15 15 16
85 89 92 91 90 88 88 90 91 94 98 96 83 67 51 35 22 10 4 4 4 5 4 3 3 3 3 3 3 3 3 3 3 4 4 4 5 6 7 7 8 9 9 9 9 9 9 9 9 9 9 9 9 9 10 10 9 8 8 8 7 7 7 8 8 8 9 8 7 7 7 8 8 8 8 9 10 11 12 12 12 13 14 14 15 15 16 17
84 83 86 93 98 96 98 99 95 97 98 87 68 53 41 29 16 6 4 4 4 4 3 3 3 3 4 4 3 3 3 3 3 4 4 4 6 7 8 8 9 9 9 9 9 9 9 8 8 8 8 8 7 8 9 9 7 6 6 5 5 5 6 7 7 7 8 7 7 6 6 7 7 7 8 8 9 10 11 12 13 14 14 15 15 16 17 18
86 81 81 87 95 99 100 100 98 100 95 76 58 44 33 21 9 4 4 4 4 4 3 3 3 3 4 4 3 3 3 3 3 4 4 5 6 7 8 9 9 10 9 10 9 8 7 6 6 6 7 6 6 7 6 6 4 4 4 3 4 5 6 5 6 6 6 6 6 6 5 6 6 6 7 8 9 10 10 12 13 14 15 15 16 17 18 19
87 84 80 82 90 99 101 99 100 101 87 64 49 39 27 14 5 4 4 5 5 3 3 3 3 3 4 4 3 3 3 3 4 4 5 6 7 8 9 9 9 9 9 9 7 6 6 5 5 6 5 5 5 5 4 4 3 3 3 3 4 4 5 4 5 5 4 5 5 5 5 5 6 6 7 7 8 9 10 11 12 13 14 16 17 17 19 20
80 87 83 83 89 97 101 101 101 98 79 54 42 34 20 9 4 4 4 5 4 3 3 3 3 4 4 4 3 3 3 4 4 5 6 7 8 8 9 9 9 8 8 7 5 5 5 5 5 5 4 4 4 4 3 3 3 3 3 3 4 4 4 4 4 4 4 5 5 5 4 5 6 6 6 7 7 8 8 10 11 13 14 16 17 18 19 21
64 85 85 87 91 94 99 101 100 94 72 49 39 27 13 6 4 4 5 5 4 3 3 3 4 4 3 3 3 3 4 4 4 5 7 8 8 9 9 10 9 7 7 5 4 5 5 4 4 4 4 4 3 3 3 3 3 3 4 4 4 4 4 4 4 4 4 4 4 5 5 5 5 6 6 6 6 7 8 9 11 12 14 16 17 18 20 23
47 77 83 87 89 91 96 99 99 89 66 47 36 21 9 5 4 4 5 5 3 3 3 3 4 4 4 3 3 4 4 4 4 6 7 8 9 9 10 10 8 7 6 5 5 5 4 4 4 4 4 3 3 3 3 3 3 4 4 4 4 4 4 4 4 4 4 5 5 5 6 5 5 6 6 6 6 7 8 10 11 12 14 16 18 19 22 25
37 70 81 84 85 89 95 98 98 79 56 43 29 13 6 5 4 5 5 4 3 3 3 4 4 4 4 3 4 4 4 4 5 7 8 9 9 10 10 9 8 7 6 5 4 4 4 4 4 4 4 3 4 3 3 4 4 4 4 4 4 4 4 4 5 5 5 5 5 5 6 6 5 6 6 7 7 8 10 11 12 13 14 16 18 21 25 26
33 65 80 82 83 89 94 100 97 70 51 42 22 9 6 4 5 5 4 3 3 3 4 4 4 4 4 4 4 4 4 5 6 7 9 9 10 10 9 8 8 8 6 5 4 4 4 4 4 4 3 3 4 4 4 4 4 4 4 4 4 4 5 5 5 5 6 6 5 6 6 6 6 6 7 7 8 9 11 12 13 13 15 16 18 22 26 29
31 62 81 81 84 93 96 101 93 66 53 39 14 6 5 4 6 5 4 3 3 4 4 4 4 4 3 4 4 4 5 5 6 8 9 10 10 10 8 8 8 7 6 5 4 4 4 4 4 3 4 4 4 3 4 4 4 4 4 4 4 4 5 5 5 6 6 6 6 6 6 6 6 7 8 8 9 10 12 13 14 15 16 16 19 24 28 30
35 65 83 82 87 97 99 99 86 64 50 27 7 5 5 5 7 5 4 4 4 4 4 4 4 4 4 4 4 4 5 6 7 8 9 10 10 10 9 8 9 7 5 5 5 4 4 4 3 4 4 4 4 4 4 4 4 4 4 4 5 5 5 5 6 6 7 7 7 7 7 7 7 8 9 10 10 11 13 14 14 16 17 16 19 23 28 31
49 74 86 89 91 98 102 95 79 60 39 15 6 6 4 7 6 4 4 3 4 4 4 4 4 4 4 4 5 5 6 6 7 9 9 10 10 10 9 9 10 8 7 6 5 4 4 4 4 4 4 4 4 4 4 4 4 4 4 4 4 5 5 5 6 7 7 8 7 8 9 8 8 9 10 11 12 13 14 14 15 17 17 17 18 21 25 29
65 87 90 96 97 100 102 92 74 52 25 9 8 7 6 8 6 4 4 4 5 5 4 4 4 5 5 5 5 5 6 7 8 9 10 10 10 10 10 10 10 9 8 7 6 5 5 5 5 5 5 5 6 6 5 5 5 5 5 5 5 5 6 6 7 7 7 8 9 9 10 10 10 11 12 13 13 14 15 14 15 18 17 16 17 20 24 28
78 98 94 99 101 99 101 91 70 40 15 10 10 7 7 8 5 5 4 4 6 4 5 5 4 5 5 5 6 6 7 8 9 11 10 10 10 10 11 11 11 11 10 9 7 7 7 7 6 6 6 7 7 7 7 7 7 7 7 7 7 7 8 8 8 8 9 9 9 9 10 11 11 11 13 15 14 15 16 15 16 18 17 17 18 20 25 28
89 103 98 101 100 97 101 88 54 24 12 12 9 7 8 7 5 5 4 5 5 5 5 5 5 5 5 6 7 7 8 9 10 11 11 10 11 11 11 11 12 12 11 11 10 9 9 8 7 7 8 8 8 7 8 8 8 8 7 8 8 8 9 10 10 9 9 9 10 10 11 13 13 12 14 15 15 17 17 17 17 17 17 18 20 22 26 30
99 103 99 101 99 97 95 69 33 16 15 11 7 8 8 6 5 4 5 5 5 5 5 5 6 6 6 7 8 8 8 9 11 11 11 10 11 11 11 12 12 12 11 12 11 10 10 9 9 9 9 9 9 8 8 8 8 7 8 8 8 9 9 10 12 12 11 10 10 10 12 16 16 14 16 17 18 19 18 18 18 17 17 20 23 25 28 32
101 100 100 99 92 83 72 49 30 24 17 9 8 9 7 5 5 4 5 5 5 5 5 5 6 6 8 8 8 9 9 10 11 11 11 10 10 10 11 11 11 11 11 12 12 11 12 12 12 11 11 11 11 11 11 10 10 10 11 11 10 11 10 10 12 13 14 13 12 11 12 18 19 15 17 20 20 20 19 19 19 18 19 22 26 29 31 34
99 99 101 92 74 59 49 38 34 29 18 13 11 8 6 5 5 5 5 5 5 5 5 6 7 7 9 9 9 9 10 11 11 10 10 10 10 10 11 11 11 11 11 11 12 12 13 13 14 14 14 14 14 14 14 14 14 14 15 15 15 15 14 13 13 13 15 14 14 13 12 17 19 17 18 21 21 21 20 21 21 20 21 25 29 32 35 37
100 100 97 81 57 44 38 31 29 28 20 14 9 6 6 5 5 6 5 5 5 5 6 7 8 8 9 10 10 9 10 11 10 10 10 10 10 10 10 10 10 10 10 10 11 11 13 13 14 15 15 15 16 16 16 16 16 17 17 17 18 18 17 17 16 15 16 15 16 16 15 16 19 20 21 23 23 22 22 22 23 24 25 29 33 36 39 41
101 97 88 68 46 37 34 29 28 25 16 11 7 6 6 5 6 5 4 5 5 6 7 7 9 9 9 10 10 9 10 10 10 10 10 10 10 9 10 10 9 9 9 9 10 10 12 13 14 15 16 16 17 17 18 17 18 18 18 18 19 20 20 21 20 18 18 19 19 20 18 18 20 22 22 24 25 25 27 27 28 30 32 34 37 39 42 43
97 90 78 59 45 40 36 31 25 17 11 8 6 5 5 6 6 5 5 5 5 7 7 7 9 9 9 10 10 10 10 10 10 10 10 10 9 9 9 9 9 9 8 8 9 9 11 12 14 15 16 17 18 18 19 18 18 19 19 19 20 21 23 23 23 22 22 23 23 23 22 21 23 25 24 24 26 27 31 32 33 35 38 40 41 42 43 43
91 83 71 59 50 43 36 28 18 12 9 7 5 5 6 6 5 5 5 5 6 7 7 8 9 9 9 9 10 10 10 10 10 10 10 9 9 9 9 9 9 8 8 8 8 8 9 11 13 15 16 17 18 19 20 19 19 20 20 21 21 22 24 25 25 25 25 26 26 25 25 24 25 28 28 27 28 30 34 38 40 41 43 44 44 44 44 43
75 71 63 55 45 35 28 20 13 11 8 6 5 6 6 5 5 5 5 6 7 7 8 8 8 8 9 8 9 9 9 9 9 9 9 9 9 9 9 9 8 8 8 8 8 8 9 10 12 14 16 18 19 19 19 20 19 19 20 21 22 23 23 24 26 26 27 29 29 29 30 29 28 29 31 32 32 34 38 42 45 47 48 48 46 46 45 44
63 60 55 46 34 23 17 13 11 9 7 7 6 5 6 5 5 5 5 6 7 7 8 8 8 8 8 8 8 8 8 8 8 8 8 8 8 8 8 8 8 8 8 8 8 9 9 11 13 15 17 18 19 19 19 19 20 19 19 20 21 21 22 23 24 24 28 31 31 31 32 33 34 33 34 37 38 40 44 47 50 52 52 50 47 47 47 45
43 42 40 32 22 15 10 9 9 8 7 6 5 5 6 5 5 5 5 6 7 8 8 8 8 7 7 7 7 7 8 8 8 8 8 8 8 8 8 8 8 8 8 9 9 10 11 12 14 16 17 18 19 19 19 20 20 20 20 21 21 21 20 20 20 21 25 30 33 34 35 37 38 38 39 41 44 48 51 54 55 55 55 53 50 48 48 47
22 23 22 17 12 9 7 8 9 8 7 6 5 5 5 5 5 5 5 6 7 8 8 8 8 7 7 7 7 7 7 7 8 7 8 8 8 8 8 8 8 8 9 9 10 11 12 14 15 16 17 18 19 20 20 21 22 22 23 23 24 24 22 20 19 20 21 26 34 38 40 42 42 42 44 45 50 55 56 59 60 58 57 56 54 51 49 47
21 20 16 11 9 8 8 9 8 7 6 5 5 5 5 6 5 5 6 6 6 7 8 8 7 7 7 7 7 7 7 7 7 7 8 8 8 8 8 9 9 9 10 10 11 13 14 15 16 17 18 19 20 21 22 22 22 24 24 24 25 28 28 26 27 26 23 23 31 38 44 49 47 46 49 51 55 59 60 63 64 62 61 60 57 53 49 47
19 15 11 9 9 9 9 8 7 7 6 5 5 5 6 6 5 6 6 6 6 7 7 7 7 7 7 7 7 7 7 8 8 8 9 9 9 10 10 10 10 11 11 12 13 14 15 17 18 19 20 21 22 23 23 23 24 25 25 26 27 28 30 32 32 33 31 25 27 36 45 52 51 48 53 58 58 60 63 63 64 64 64 63 59 55 50 47
11 9 8 8 9 9 9 8 7 6 5 5 5 6 6 6 6 6 6 6 7 6 7 7 7 7 7 7 7 8 8 9 9 10 10 10 11 11 12 12 12 13 13 14 15 16 17 19 20 21 22 22 23 24 25 25 26 27 28 29 28 26 29 33 33 35 38 31 26 34 46 54 52 48 55 64 62 61 63 64 64 66 66 63 60 56 50 48
8 7 8 9 9 9 9 8 7 5 5 5 5 6 6 6 6 6 6 7 6 7 7 6 6 7 7 8 9 9 10 10 10 11 11 11 12 12 13 13 13 14 15 16 17 17 18 20 22 23 23 23 23 24 26 27 28 31 33 33 30 27 28 32 36 40 43 35 24 30 47 58 57 52 56 68 70 64 64 67 68 69 69 64 60 56 50 48
9 7 8 9 10 9 8 7 6 6 5 6 6 6 6 6 7 6 6 7 6 7 6 6 7 7 8 9 10 10 10 10 11 11 11 12 12 12 13 13 14 15 16 18 19 19 20 19 22 23 23 23 22 23 26 27 29 33 36 38 36 35 35 35 42 49 51 44 30 27 44 62 68 64 63 72 76 68 65 71 73 72 71 66 60 55 51 49
8 8 8 9 10 8 7 6 6 6 6 6 6 6 6 6 6 6 7 6 6 6 6 7 8 9 9 10 9 10 10 10 12 12 12 13 13 14 14 15 16 17 18 20 20 20 20 18 20 21 22 22 22 24 26 27 30 33 39 44 42 42 43 40 46 56 60 58 48 36 37 55 76 76 71 78 80 70 68 73 75 74 73 69 61 54 51 50
7 8 8 9 9 7 7 6 6 6 6 6 6 6 6 6 6 7 6 6 6 7 8 9 9 9 10 10 10 11 11 12 13 13 13 14 14 15 15 17 18 18 19 20 20 20 19 18 18 20 21 21 21 24 25 26 31 35 42 48 47 48 49 46 48 57 65 67 67 58 39 46 76 80 74 84 84 73 73 75 75 76 75 72 64 56 53 50
6 7 8 10 9 7 7 6 6 6 6 6 6 6 6 6 6 6 6 7 8 8 9 9 9 10 10 11 12 12 13 14 14 15 15 15 16 16 17 18 19 20 19 19 19 19 17 17 17 18 21 21 21 24 25 27 32 38 44 50 54 56 59 61 56 55 64 66 72 76 52 46 76 82 76 88 86 76 78 78 76 78 78 74 68 61 54 46
6 8 9 10 8 7 7 6 6 6 6 6 6 6 6 6 6 7 7 8 9 9 10 10 10 11 11 13 13 14 14 14 15 16 16 16 18 18 18 19 19 19 18 18 19 18 17 17 15 16 18 19 20 23 25 29 33 38 46 52 57 60 67 75 71 65 67 64 75 85 60 49 75 83 80 90 85 78 81 80 79 79 78 78 72 63 52 40
8 9 10 9 8 7 6 6 6 6 6 6 6 6 6 6 7 8 9 9 9 9 10 10 12 13 13 14 14 15 15 14 15 16 17 18 18 18 18 18 18 18 18 18 18 18 17 15 13 12 12 14 19 24 27 30 32 37 47 54 57 64 74 79 80 77 70 67 83 86 60 55 72 78 83 89 80 77 81 81 82 80 79 80 73 59 46 36
10 9 9 8 7 7 6 6 6 6 6 6 6 7 7 7 9 9 9 9 9 10 11 12 13 14 14 15 14 14 15 14 15 16 17 18 18 17 17 17 17 18 18 18 18 17 15 13 13 11 8 9 13 18 23 26 29 36 46 52 54 66 78 78 77 75 69 72 85 80 64 64 70 75 87 86 76 77 82 84 85 81 79 77 67 52 39 32
10 9 8 7 7 7 7 7 7 7 7 7 7 8 8 9 10 9 10 10 10 11 12 13 14 14 14 14 14 15 15 15 15 15 16 17 16 17 17 16 17 17 17 17 15 13 11 11 14 14 13 14 15 16 19 19 23 33 41 46 54 68 78 76 75 73 73 77 78 75 74 65 60 77 90 83 79 82 81 83 83 79 77 71 57 43 33 34
8 8 8 8 7 8 8 8 8 7 8 8 9 9 9 9 10 9 9 10 11 12 13 14 14 13 14 14 14 15 15 15 15 15 16 16 16 16 16 15 16 15 14 14 12 11 9 9 14 17 18 22 25 27 27 23 25 34 40 47 62 75 77 76 77 77 79 80 72 80 89 61 46 72 81 71 81 86 79 77 72 68 70 62 47 36 35 44
8 8 8 8 8 9 9 8 8 9 9 9 9 10 9 9 9 9 10 10 12 13 13 13 14 13 14 14 14 15 15 15 15 15 15 15 13 13 12 12 12 11 11 11 10 11 10 9 14 17 18 23 29 31 33 32 32 35 42 57 73 79 76 78 82 80 82 82 72 82 94 66 47 68 75 69 78 80 75 70 60 57 59 49 38 38 45 58
8 8 9 9 10 10 10 9 9 9 9 9 9 9 9 9 9 9 10 11 11 12 12 12 12 12 13 13 12 13 12 12 12 11 11 10 9 9 9 8 9 9 9 11 11 12 12 11 14 16 16 21 29 32 33 35 35 37 50 70 79 79 80 83 85 83 83 83 76 80 86 70 59 68 71 70 77 76 70 62 51 50 49 41 42 51 61 75
10 9 9 9 10 10 10 10 10 9 9 9 9 9 9 9 9 9 10 11 10 10 10 9 9 9 9 9 8 8 8 7 8 7 7 7 7 7 8 8 9 10 11 13 13 14 14 13 14 14 12 18 29 34 34 34 37 42 60 78 80 80 87 85 81 82 80 74 76 78 68 58 65 72 66 65 75 76 68 55 46 45 45 46 57 68 77 89
10 10 10 10 10 10 10 9 9 9 9 9 9 9 9 9 9 9 9 8 7 7 7 6 6 6 5 6 5 5 6 6 6 7 7 8 9 9 10 10 11 12 13 14 14 16 16 15 15 14 11 16 26 32 34 38 42 50 67 80 80 80 84 79 72 74 74 70 74 73 53 43 57 68 64 65 73 70 60 50 44 45 53 62 73 81 90 98
11 10 10 9 9 9 9 9 9 9 9 9 8 8 8 7 7 6 6 6 5 5 5 5 5 5 5 6 6 6 7 7 8 9 9 10 11 11 11 11 12 13 14 15 16 17 18 16 16 15 12 16 25 30 35 40 47 60 72 75 70 67 68 68 65 66 72 74 69 58 47 44 51 55 56 62 66 63 57 51 49 56 68 78 87 95 100 100
10 9 9 8 8 8 8 8 8 7 7 7 6 6 6 5 5 5 5 5 5 5 5 5 5 6 6 6 7 7 7 8 9 9 9 10 10 11 12 12 14 15 15 17 17 17 18 17 17 18 15 18 27 33 36 40 48 61 65 58 52 53 56 61 64 66 72 75 65 54 52 54 56 57 54 50 51 55 55 55 61 73 83 88 94 100 102 101
Wind_Speed
25 26 28 29 30 30 31 31 30 28 25 22 20 17 16 14 12 12 12 12 13 13 13 11 11 11 11 11 10 9 11 13 13 11 9 7 7 9 9 8 7 6 6 6 6 6 6 7 7 7 8 8 8 9 10 11 11 12 13 14 15 16 18 20 21 22 22 23 24 25 27 29 31 32 33 34 35 36 37 37 38 38 38 38 38 40 41 42
26 26 27 27 27 28 31 33 31 29 25 22 21 19 17 15 14 14 14 14 14 14 12 11 11 11 11 10 10 9 10 12 12 10 7 6 8 8 7 7 6 5 5 6 6 7 7 7 7 8 8 9 9 10 11 12 13 13 14 15 16 17 18 20 22 23 24 25 25 27 29 31 32 33 34 36 36 37 38 39 39 39 38 38 39 40 42 43
25 25 25 24 24 25 28 31 30 28 23 20 19 19 18 17 16 15 14 15 15 13 12 11 11 11 11 10 9 8 10 11 11 8 5 6 7 7 6 5 5 5 6 6 7 8 8 8 8 8 9 9 10 10 11 13 14 15 15 16 17 18 19 20 23 24 25 26 28 29 30 32 33 34 35 37 38 38 39 40 40 40 39 39 40 41 43 44
23 23 22 22 22 23 25 27 27 24 20 16 16 18 19 18 16 15 15 15 14 13 12 11 10 10 10 10 9 9 10 10 9 7 5 6 6 6 5 5 5 5 6 7 7 8 7 8 8 9 9 10 10 11 12 13 15 16 16 17 18 19 19 20 22 25 27 28 29 30 31 32 34 35 37 38 39 40 40 41 41 40 40 41 41 42 43 44
20 22 22 22 22 21 23 25 25 22 17 14 15 19 20 18 16 16 15 15 14 12 11 11 10 10 10 10 10 10 10 9 8 6 5 5 4 5 5 5 5 6 6 7 7 7 8 8 9 9 10 10 11 12 12 14 15 16 17 17 18 19 20 21 23 26 28 29 30 31 32 33 35 36 38 40 40 40 41 41 41 41 41 41 42 43 44 45
18 20 21 21 21 22 23 24 23 20 16 14 17 20 20 18 17 16 16 15 14 12 11 10 9 10 10 10 10 10 9 8 7 5 5 4 3 4 4 4 5 6 6 7 8 9 9 10 10 11 11 12 12 12 13 14 16 17 17 18 18 20 21 22 24 26 29 31 32 33 33 35 36 37 39 40 41 41 41 41 41 41 42 42 43 44 45 46
19 19 19 19 19 21 21 20 20 18 15 15 20 20 19 18 17 16 16 15 13 12 11 10 10 10 10 9 10 9 8 7 5 4 3 2 3 4 4 4 5 7 8 9 9 10 10 11 11 12 12 13 13 13 14 15 16 17 17 18 19 21 22 23 25 27 29 32 33 33 34 35 36 38 39 40 40 41 41 42 42 42 43 43 44 45 46 47
18 20 19 19 19 18 17 17 17 15 15 18 21 20 20 19 17 16 16 14 13 11 11 11 11 11 9 8 9 9 7 6 4 3 2 1 3 4 4 5 7 8 10 10 10 11 11 11 12 12 12 13 13 14 14 15 16 17 17 18 20 21 23 24 25 27 29 31 33 33 34 35 36 38 39 39 40 41 41 42 43 43 43 44 45 46 47 47
14 18 20 19 18 17 15 15 14 13 17 21 21 21 21 19 17 16 15 14 12 11 11 11 12 11 8 7 8 9 8 5 3 2 1 1 3 3 4 6 8 9 10 11 11 12 12 12 12 12 12 13 14 14 15 15 16 16 17 18 20 21 23 24 25 26 28 30 32 32 33 34 36 37 38 39 40 40 41 41 42 43 43 44 45 46 47 47
11 15 17 17 17 16 15 16 15 15 20 21 21 21 20 19 18 16 15 13 12 11 11 11 11 9 8 7 8 9 7 5 3 2 1 2 2 3 5 7 8 10 11 11 12 12 12 12 12 12 13 14 15 15 16 15 15 16 17 18 20 21 22 23 25 26 27 29 30 32 33 34 35 36 37 38 39 39 40 41 41 42 43 44 45 46 47 47
10 12 14 16 16 15 16 17 16 18 22 21 21 21 19 19 17 16 15 13 12 11 11 11 10 8 8 8 8 8 6 4 3 1 1 1 3 4 6 8 9 11 12 12 12 12 12 13 13 14 14 15 15 15 15 15 15 16 18 19 20 21 21 22 24 25 26 27 29 32 33 33 35 36 37 38 38 39 39 40 41 42 43 44 45 46 46 47
11 11 14 17 17 15 15 17 18 20 23 22 21 20 19 18 17 16 14 12 12 11 11 11 9 7 7 9 9 8 6 5 3 1 1 2 4 6 7 9 10 12 13 13 12 13 13 14 15 15 15 15 15 15 15 16 16 17 19 20 20 20 21 22 23 25 26 28 30 32 33 34 34 36 36 37 38 39 39 40 41 42 43 44 45 46 46 46
13 11 13 19 19 16 16 17 19 22 24 23 22 20 19 18 17 16 14 13 12 12 11 11 9 7 8 10 10 7 6 4 2 1 1 3 5 7 8 10 12 13 13 14 14 14 15 15 15 16 16 16 16 16 16 16 17 19 20 20 21 22 22 24 25 27 28 29 31 32 34 35 35 35 36 37 38 39 40 41 41 42 42 43 44 45 45 46
14 12 14 20 21 18 19 19 20 23 24 24 23 21 20 18 17 15 13 13 13 12 12 10 9 8 9 10 9 7 6 4 3 2 2 4 6 7 9 11 12 13 14 14 14 14 15 15 15 16 16 16 17 17 17 17 19 20 21 21 22 24 25 26 27 29 30 31 32 32 34 36 36 36 37 38 39 40 40 41 41 42 42 43 44 45 45 45
17 14 15 21 22 20 21 19 21 25 25 24 23 21 20 19 17 15 13 13 12 12 11 10 9 9 10 9 8 7 5 4 3 2 3 5 6 8 10 11 12 13 14 14 14 14 15 15 16 16 16 17 18 19 19 19 20 21 23 24 25 26 28 29 29 30 31 31 32 33 34 36 37 37 38 39 40 40 41 41 41 42 42 43 43 44 44 44
19 16 17 22 23 21 20 17 22 28 27 25 22 20 21 18 16 14 13 13 12 11 11 9 9 9 10 9 8 7 5 4 2 3 4 6 7 9 11 12 12 13 14 13 14 15 15 15 16 16 16 18 19 20 20 21 22 24 25 27 28 28 29 30 30 30 31 32 32 33 34 36 37 37 38 39 40 41 41 42 42 42 42 43 43 43 43 44
20 18 19 23 24 23 20 16 21 27 27 25 23 21 21 18 16 14 13 13 12 12 11 9 9 10 11 9 7 6 4 3 3 4 5 6 8 10 12 13 14 14 14 14 15 15 15 15 16 17 18 19 20 21 22 24 25 27 28 28 28 29 29 29 30 31 31 33 33 33 34 37 38 38 38 39 41 41 41 42 42 42 43 43 43 43 43 43
21 20 20 23 26 25 21 18 21 25 24 23 23 22 20 18 16 15 14 13 13 12 10 10 10 11 11 9 7 6 4 4 4 5 5 6 9 11 12 14 15 16 16 16 16 15 15 16 18 18 19 20 21 23 25 25 26 27 28 28 27 29 30 30 31 32 32 33 35 34 33 37 38 38 39 39 41 41 41 42 42 43 43 43 43 42 43 44
23 22 22 23 25 26 23 23 24 25 23 22 23 22 20 18 17 15 15 14 13 12 11 11 11 11 10 8 7 6 5 5 4 5 6 7 10 11 12 13 15 16 17 18 18 17 17 18 19 20 21 22 23 24 25 25 26 26 27 28 28 28 30 31 32 32 33 33 35 34 33 36 39 39 39 39 41 41 42 43 43 43 44 44 43 43 43 44
24 23 23 22 24 26 25 26 28 26 24 23 23 21 20 18 17 16 15 14 13 12 11 12 11 10 8 7 6 6 6 5 5 5 7 9 10 11 13 14 15 17 18 18 18 18 19 19 20 21 22 22 23 23 24 25 25 26 27 28 29 29 30 32 32 33 34 33 34 35 33 35 39 39 39 40 41 42 42 44 44 44 45 45 44 44 44 45
24 24 24 22 24 26 27 30 31 27 24 24 22 21 20 19 17 16 15 14 13 13 13 12 11 9 7 6 6 5 5 5 5 6 8 9 11 12 13 15 17 18 18 19 19 19 19 20 20 21 22 22 23 24 25 26 26 27 28 29 30 30 31 33 34 34 36 35 35 36 34 35 38 39 39 40 42 42 43 44 44 45 45 45 45 44 45 45
25 24 22 20 22 24 27 32 30 26 25 24 22 21 20 19 17 15 14 14 13 13 14 12 10 8 7 6 5 5 5 5 5 7 9 10 12 13 14 16 17 18 19 20 20 19 19 21 22 22 23 23 24 26 26 28 28 29 31 31 32 33 33 33 35 36 38 38 37 37 35 34 38 40 39 40 42 42 43 44 45 45 46 45 45 45 45 46
25 24 20 19 20 22 27 31 28 25 25 23 22 21 19 18 17 16 14 13 13 14 13 11 9 7 6 5 4 5 5 5 5 8 9 10 12 13 15 16 18 19 20 21 21 21 21 22 23 23 24 25 26 28 29 30 31 32 33 34 35 35 35 35 35 36 39 40 39 39 37 33 37 40 39 40 41 42 43 44 46 46 46 46 45 46 46 47
26 24 21 21 24 26 29 30 27 26 24 22 21 20 19 18 16 16 14 13 13 13 11 9 8 6 5 4 5 5 5 5 7 9 10 12 13 14 16 17 19 20 21 22 23 22 23 24 25 25 26 27 28 30 31 32 34 35 36 37 37 37 38 37 37 37 38 40 41 41 39 33 36 41 40 40 42 43 44 45 46 46 46 46 46 47 47 47
25 24 24 27 30 31 30 29 27 27 24 22 21 19 18 17 16 15 14 13 13 12 10 8 7 5 4 4 5 5 5 6 8 10 11 13 14 15 17 18 20 21 21 23 24 24 25 25 26 27 28 29 30 31 32 33 35 36 37 38 38 38 39 39 39 39 39 40 41 42 42 37 38 43 41 41 43 44 45 46 46 47 47 47 47 48 48 48
25 26 29 31 31 31 30 28 27 27 24 23 21 20 18 17 16 15 14 14 12 10 9 7 6 4 4 5 6 6 7 8 9 11 12 14 15 16 18 19 21 22 23 24 25 25 26 27 28 29 30 30 31 32 34 35 36 37 38 38 39 40 40 40 40 41 41 42 42 43 45 42 41 43 42 43 44 45 46 47 47 47 47 48 48 49 49 49
28 29 32 33 32 30 29 28 27 25 23 22 21 20 18 17 16 15 15 14 11 9 8 7 6 4 4 6 7 7 8 9 11 12 13 15 16 17 19 20 22 23 24 25 26 27 27 28 29 30 31 32 33 34 35 36 37 38 39 40 40 41 41 41 41 42 41 43 43 43 45 44 43 43 44 45 45 45 46 47 47 47 47 48 49 50 50 50
30 31 32 32 31 30 29 28 25 23 22 21 20 18 17 17 16 15 15 14 11 9 8 7 6 5 6 6 7 8 9 11 12 13 15 16 17 18 20 21 23 24 25 26 27 28 29 30 31 32 33 33 34 35 36 37 39 39 40 41 42 42 42 42 42 42 42 43 44 44 45 46 44 44 45 46 46 46 46 47 47 47 47 48 49 50 51 51
28 29 30 30 29 28 27 24 22 22 21 19 18 17 17 16 15 15 15 14 11 9 8 7 7 7 7 7 8 10 11 12 14 15 16 18 18 20 21 22 24 25 27 28 29 30 30 32 32 33 34 35 36 37 37 39 40 41 42 43 43 43 43 43 43 43 42 43 45 45 46 47 46 44 46 47 47 47 47 46 46 47 47 48 49 50 51 52
25 26 27 28 27 25 23 21 21 20 19 17 17 17 16 15 15 15 15 13 11 9 8 7 8 8 8 9 10 11 12 14 15 17 18 19 20 21 23 24 25 27 28 29 31 32 32 33 33 34 35 36 37 38 39 41 42 43 44 44 44 44 44 44 44 44 44 44 46 46 46 48 47 46 47 48 48 47 47 46 46 46 46 47 49 50 52 53
24 24 25 25 24 21 20 19 19 18 17 16 16 16 15 14 14 15 15 13 11 9 8 8 8 9 10 11 12 13 15 16 18 19 20 21 22 23 25 26 27 28 29 30 31 33 34 34 34 35 36 37 38 40 41 42 44 45 45 46 46 46 46 46 46 46 46 46 47 48 48 48 47 47 48 48 47 47 46 46 46 46 46 47 48 50 52 54
22 21 22 21 20 19 18 17 16 15 15 15 14 14 14 14 14 15 15 13 11 10 9 9 9 11 12 13 14 15 17 18 19 21 22 23 24 25 27 28 29 30 31 31 32 33 34 35 36 36 37 38 40 41 42 43 45 46 47 47 48 48 49 49 50 50 50 48 48 49 49 48 47 47 47 47 46 46 45 45 46 47 47 48 49 50 52 54
22 21 20 19 18 17 16 15 14 14 14 14 14 13 13 13 14 15 15 13 11 11 10 10 11 12 13 14 16 17 18 19 20 22 23 24 25 27 28 29 30 31 32 33 34 34 35 35 36 37 38 40 41 42 44 45 46 47 48 49 49 50 52 53 53 54 54 51 49 49 47 46 47 47 46 46 45 44 45 45 46 48 48 49 50 51 53 55
22 21 20 18 16 15 14 13 13 13 13 13 13 13 13 13 14 15 14 13 12 12 12 13 14 14 15 16 17 18 19 20 21 23 24 25 27 28 29 30 31 32 33 34 35 35 36 36 37 39 40 41 42 43 45 46 47 47 48 49 50 51 52 53 54 54 55 54 50 48 45 42 46 47 46 45 44 43 45 45 46 49 50 51 52 53 54 56
21 19 18 16 14 13 13 13 12 12 12 13 13 13 13 13 13 13 13 12 12 12 13 14 15 15 16 16 18 19 21 22 23 24 26 27 28 29 30 32 32 33 35 35 36 37 37 38 39 40 41 42 43 44 46 47 47 48 49 50 51 51 52 52 53 54 55 56 52 49 45 41 45 48 45 45 45 44 45 46 47 49 51 52 54 55 56 57
18 16 15 14 13 13 13 13 12 12 12 12 13 12 12 12 11 12 12 12 12 13 13 14 15 16 17 17 19 20 22 23 24 26 27 28 29 30 31 33 33 34 36 36 38 38 39 39 39 41 42 43 44 45 46 47 48 49 49 50 51 53 53 53 54 53 54 56 54 52 47 41 43 47 45 47 48 46 47 48 48 50 52 54 55 57 58 59
15 14 14 13 13 13 13 12 12 12 12 12 12 11 11 10 11 11 11 12 12 13 14 15 16 17 18 18 20 22 23 25 26 28 29 29 30 31 32 33 34 35 36 37 39 39 40 40 39 41 42 43 45 46 47 48 49 49 48 50 52 53 53 54 54 53 53 56 56 55 49 41 42 47 46 48 51 49 48 49 50 52 53 55 57 58 59 60
14 13 13 13 13 12 12 11 11 11 11 11 10 10 10 10 10 11 11 11 13 13 15 16 16 17 19 20 22 23 25 27 27 29 30 30 31 32 33 34 35 36 37 38 39 40 41 41 40 41 43 44 46 47 48 49 49 49 48 49 51 52 53 54 54 52 52 55 57 57 51 41 40 46 46 48 52 51 50 50 51 52 54 56 58 59 60 62
13 13 12 12 12 11 11 10 10 10 10 10 9 9 10 10 10 10 11 12 13 14 15 16 18 19 20 22 24 26 27 28 29 31 31 31 32 32 34 35 35 37 37 38 40 40 42 43 42 42 44 46 47 48 49 49 50 49 47 48 49 50 52 54 54 52 51 53 55 58 56 44 37 43 45 47 53 53 52 52 52 53 55 57 59 61 62 64
13 13 12 11 11 11 10 10 9 9 9 9 9 9 10 10 10 11 11 12 14 15 16 17 19 21 23 25 26 27 29 29 30 31 32 32 33 33 34 35 36 37 38 39 40 42 43 45 45 45 46 48 48 48 49 50 50 49 47 47 48 49 51 53 54 52 50 52 52 56 59 46 36 40 44 46 52 53 53 53 53 54 56 59 61 63 65 66
12 12 11 11 11 10 9 9 9 9 9 9 9 9 10 10 10 11 12 13 14 16 17 20 22 24 25 27 28 29 30 30 30 31 32 32 33 34 35 36 37 38 39 40 41 43 45 47 48 47 47 48 48 48 49 49 50 49 47 45 46 47 49 51 55 53 51 51 49 54 59 48 37 41 43 45 52 53 53 55 55 56 58 60 63 65 67 68
12 12 11 11 10 9 9 8 9 9 9 10 10 10 10 11 11 12 13 14 15 17 20 22 24 26 27 27 29 29 30 31 30 31 32 32 34 35 35 36 37 39 40 42 43 45 47 49 49 48 48 48 48 47 48 49 50 49 47 45 45 46 47 50 54 54 52 51 48 53 59 49 41 44 45 46 52 52 53 55 57 58 60 62 65 67 68 68
12 11 10 10 9 9 9 9 9 10 11 10 10 11 11 12 13 13 14 16 18 20 22 24 25 26 27 28 29 30 30 31 31 31 32 33 34 35 36 37 39 41 42 44 45 47 49 50 51 50 49 48 47 46 47 48 49 49 47 46 46 46 46 49 52 53 53 51 47 54 60 53 46 46 46 49 54 53 53 55 57 60 62 64 66 68 68 67
11 11 10 9 9 9 9 10 10 11 11 11 11 12 13 13 14 15 16 18 20 22 23 25 25 27 28 29 29 30 30 31 32 32 32 33 35 36 38 39 41 43 44 46 47 48 50 51 51 51 51 49 47 47 48 49 50 50 47 46 46 46 47 50 53 54 54 51 49 55 59 55 50 47 47 51 55 53 53 55 57 60 62 64 67 68 68 67
11 11 10 9 9 9 10 10 11 12 12 12 13 14 14 14 15 17 19 20 22 23 24 25 26 27 28 29 30 30 31 32 33 34 34 35 37 38 40 42 43 44 46 47 48 49 50 50 49 50 51 50 49 49 50 51 52 50 48 47 47 46 48 51 53 54 53 54 53 53 56 57 53 48 48 53 54 54 53 54 57 60 62 65 67 68 69 68
11 11 10 9 9 10 10 11 12 13 13 13 14 15 16 16 17 19 20 22 23 24 25 26 27 28 29 30 30 31 32 33 35 36 37 38 40 41 43 44 45 46 46 48 48 49 49 48 47 48 48 48 48 48 49 51 51 49 48 47 46 46 49 51 52 51 52 56 55 50 53 60 57 52 53 56 56 56 56 56 58 61 63 66 67 68 69 68
11 10 10 10 10 10 11 12 13 13 14 14 15 16 17 18 19 21 22 23 24 25 26 27 28 30 30 31 32 33 34 36 37 38 40 41 42 43 44 45 45 46 46 47 47 48 48 47 46 47 47 47 46 46 48 49 49 48 46 45 45 47 48 49 49 50 51 55 56 50 52 59 59 56 58 59 58 60 60 59 61 63 65 67 67 68 68 67
10 10 10 10 10 11 12 13 14 14 15 15 16 18 19 20 21 22 23 24 26 27 28 29 30 31 32 33 35 36 37 38 39 40 41 43 43 43 44 44 44 44 45 45 46 47 48 47 46 47 48 47 46 46 47 48 48 46 44 44 45 46 47 47 47 48 50 53 54 53 54 57 58 57 59 59 60 62 62 62 62 64 66 67 68 68 67 66
10 10 11 11 12 12 13 14 15 16 16 17 18 19 20 22 23 24 25 26 27 28 30 31 32 33 34 35 36 38 39 39 40 40 41 42 42 42 42 42 43 43 44 44 45 46 48 48 47 49 49 47 45 45 46 47 46 43 40 41 44 44 46 47 46 46 49 52 53 54 57 57 56 58 60 60 61 63 64 64 63 65 67 68 68 68 68 68
10 11 12 13 14 14 15 15 16 17 17 18 19 20 22 23 24 25 27 28 29 30 31 32 33 34 34 35 36 37 38 38 39 40 40 40 41 41 42 42 42 43 43 44 45 46 47 48 48 50 50 47 44 44 45 45 43 39 37 38 42 44 46 46 46 46 49 52 53 55 59 58 57 59 61 62 63 65 67 66 64 65 69 71 71 70 70 70
11 12 12 14 14 15 15 16 16 17 18 19 20 22 23 24 25 26 27 28 29 30 31 31 32 33 34 35 36 36 37 38 38 39 40 40 41 41 42 42 43 43 43 44 45 45 47 48 48 50 50 47 44 44 43 42 39 36 37 39 42 45 46 47 46 46 48 52 54 57 60 60 59 61 63 64 65 68 69 68 66 67 70 72 72 72 71 69
12 13 13 14 14 15 15 16 17 18 19 20 21 22 23 24 25 26 27 28 29 30 31 31 32 33 34 35 36 37 38 38 39 40 40 41 41 42 42 42 42 43 43 44 44 44 46 47 47 49 50 46 43 43 42 39 36 36 38 42 44 46 48 48 46 44 47 52 56 59 60 61 62 63 64 65 67 68 70 69 68 70 72 73 73 73 71 69
Wind_Direction
198 202 206 208 208 210 213 213 211 210 208 204 203 202 201 191 173 162 158 161 167 163 154 149 146 144 146 146 142 144 144 137 129 119 112 114 106 90 79 70 58 49 43 40 40 41 40 38 35 28 25 21 14 6 358 359 356 353 352 347 346 345 342 338 335 335 337 337 337 334 331 330 330 330 329 330 330 330 329 328 327 327 328 330 331 331 331 332
195 200 205 207 206 210 215 216 214 213 210 206 203 202 199 182 162 161 164 167 168 162 155 152 150 147 150 149 146 152 150 143 131 122 126 124 101 87 77 66 50 36 26 23 27 26 24 23 22 16 14 11 7 360 352 352 347 345 347 343 343 343 341 337 333 333 332 332 331 329 328 328 328 328 328 328 328 327 327 327 326 326 327 328 329 329 329 330
188 195 201 201 203 208 212 213 214 214 213 209 204 198 191 171 156 162 169 171 167 160 155 154 154 154 157 154 155 160 159 149 132 131 142 117 93 79 68 55 37 25 16 13 17 17 12 9 10 8 6 3 358 353 350 347 340 339 342 341 341 340 339 336 333 331 330 329 328 327 327 326 327 327 327 327 326 326 326 326 325 325 327 328 328 327 327 327
184 190 194 193 196 202 207 208 210 214 214 211 206 189 175 159 154 165 171 171 166 159 156 158 159 159 161 161 167 169 165 151 135 147 144 102 83 64 52 38 24 19 12 8 12 10 3 360 2 2 358 353 349 350 348 340 335 336 338 338 338 335 334 333 331 330 328 327 326 326 326 325 325 325 325 325 324 325 324 324 325 325 326 327 327 326 326 325
185 188 191 192 192 195 198 201 207 214 211 208 199 175 160 153 157 167 172 171 165 161 160 162 162 164 169 172 175 169 164 151 142 150 126 95 73 51 39 28 20 16 7 0 3 358 354 355 355 354 350 344 344 347 342 335 334 335 335 336 334 328 328 330 330 329 326 325 325 325 325 324 323 323 324 323 323 323 323 324 324 325 326 326 326 325 324 324
190 188 190 194 194 194 194 197 206 213 211 202 185 165 152 152 162 170 173 170 164 163 163 165 168 172 177 179 175 165 159 152 144 140 118 99 62 41 29 21 15 9 357 353 354 347 347 348 346 346 342 338 339 340 337 336 335 331 332 333 328 324 327 330 329 327 325 324 324 325 324 324 322 323 323 322 322 322 323 324 324 325 325 325 324 323 323 323
192 191 188 191 195 198 201 203 208 216 216 194 174 160 150 155 168 174 172 167 163 164 166 171 176 178 182 185 174 161 161 158 144 134 127 101 47 36 19 8 2 354 348 349 347 341 342 341 340 340 336 334 335 336 337 337 332 328 331 329 325 326 329 330 327 326 325 323 323 324 324 324 323 323 323 322 322 323 323 323 324 324 324 324 323 322 322 322
190 195 190 188 195 200 206 210 209 213 205 178 167 160 153 160 173 175 169 165 165 168 173 178 180 179 181 185 174 160 167 171 147 143 151 62 37 31 8 358 352 343 342 343 339 336 339 336 335 336 333 332 335 337 337 333 327 327 330 328 329 331 332 329 326 326 324 321 322 324 324 324 324 323 323 323 323 323 323 323 323 323 323 322 322 321 321 322
185 194 194 187 192 198 203 204 197 191 179 168 164 160 157 165 174 172 168 167 169 174 179 182 181 179 178 187 184 167 170 181 160 167 206 12 27 20 360 352 344 337 336 335 332 334 337 334 333 336 335 336 341 341 336 330 328 331 334 334 336 335 332 328 327 326 323 322 323 324 325 325 324 324 324 324 323 322 322 322 322 321 321 321 321 321 321 322
186 190 190 184 188 192 194 190 178 172 168 165 164 161 161 169 171 168 167 168 173 177 181 183 180 180 180 186 191 176 174 188 178 187 267 357 7 360 349 339 335 335 333 330 331 334 334 333 337 342 342 343 346 342 336 333 336 340 341 340 339 335 331 328 327 326 323 323 323 324 326 326 325 325 324 323 322 322 322 322 322 321 321 321 320 321 321 322
201 189 179 175 181 183 183 179 172 170 166 164 165 163 167 170 168 166 166 170 175 178 183 181 179 191 190 179 186 187 185 194 190 198 309 349 348 344 336 331 333 335 332 329 331 334 335 339 345 347 346 347 348 341 336 340 344 345 343 341 338 333 330 328 327 326 326 326 325 326 327 327 326 324 323 322 322 323 323 323 322 322 321 321 321 321 321 322
210 197 176 170 173 174 174 173 171 170 167 165 166 168 171 170 167 166 168 173 177 182 186 180 180 199 199 181 183 193 196 199 198 226 322 346 339 332 329 331 333 334 331 330 334 338 342 346 347 347 346 347 345 340 340 342 344 343 340 338 334 331 329 328 328 328 329 329 328 328 327 327 325 324 323 323 323 324 324 324 323 323 322 321 320 320 321 322
211 201 179 171 172 171 168 169 171 169 167 167 168 170 172 170 168 168 172 177 180 186 186 181 183 195 199 189 185 196 206 206 213 255 307 341 331 326 332 335 334 333 333 334 338 342 344 345 346 345 343 343 343 341 340 340 341 339 337 334 331 329 329 329 329 330 331 330 329 327 326 325 325 324 324 324 324 324 324 324 324 323 322 320 320 320 320 321
211 199 178 171 172 171 167 171 174 170 168 170 170 172 172 169 169 171 176 180 184 187 185 184 189 196 197 191 189 201 211 212 226 252 304 328 324 330 337 335 334 335 336 336 337 340 343 344 344 343 340 341 341 337 336 337 337 335 333 331 330 330 332 332 331 330 329 329 328 326 324 323 325 325 325 325 325 325 325 325 325 323 322 320 319 320 320 321
209 198 179 172 172 171 171 177 178 172 170 172 172 172 170 168 170 174 180 183 186 187 186 188 190 196 195 191 196 206 213 221 231 263 312 317 323 336 336 333 336 337 335 333 335 340 342 343 343 340 338 339 337 334 334 335 333 331 331 330 331 333 332 332 331 327 327 327 327 326 323 322 324 326 326 326 325 325 324 324 325 324 322 320 320 320 321 322
206 197 182 174 173 174 175 183 183 175 171 172 173 171 167 167 170 176 181 184 187 186 188 194 194 197 195 193 201 208 214 225 245 285 306 317 327 332 332 332 336 336 332 332 340 342 341 341 341 337 335 337 334 331 332 332 331 331 331 331 332 332 329 328 327 326 324 324 325 326 324 323 325 327 327 326 325 325 324 324 324 324 322 321 320 320 321 322
203 195 184 176 175 176 177 184 185 178 173 170 171 170 165 166 172 177 182 185 189 189 190 195 200 202 199 199 207 209 216 233 258 278 299 324 331 331 332 333 335 335 335 339 344 341 338 339 338 337 337 333 329 330 332 333 333 332 331 331 330 328 327 325 324 324 323 323 324 325 324 324 327 328 327 326 325 324 323 323 324 324 323 322 320 320 321 322
198 194 186 179 178 177 176 181 182 178 176 171 169 167 165 168 175 179 182 185 189 194 195 195 202 207 202 205 212 212 225 239 255 280 306 329 336 334 333 333 336 337 339 343 343 338 338 339 339 339 335 330 330 334 335 335 333 331 329 328 328 327 327 327 325 324 325 323 323 325 325 325 327 328 327 326 324 324 323 323 324 324 323 321 320 320 321 322
193 193 186 180 179 177 177 180 179 179 179 173 168 166 166 173 179 181 183 186 188 195 200 197 199 206 207 211 219 223 236 247 267 295 315 332 335 333 332 335 338 339 342 342 339 338 341 340 339 339 336 336 338 338 336 334 332 330 329 328 329 329 328 328 328 326 326 324 323 326 327 325 327 327 327 325 324 323 323 323 324 324 322 321 321 321 321 323
188 188 184 181 181 180 181 180 178 180 180 173 169 167 172 178 181 182 184 185 188 194 200 199 199 206 212 219 228 236 245 255 278 307 323 328 328 329 334 337 339 342 343 341 339 341 343 342 341 340 340 342 340 338 336 335 334 333 333 333 332 332 330 330 329 328 327 326 325 327 328 327 326 326 327 325 323 323 324 324 324 323 322 322 322 322 323 324
183 183 183 182 184 185 185 180 177 180 177 172 170 172 178 182 182 184 184 184 188 194 199 200 203 208 213 222 235 245 253 259 286 318 322 322 326 332 336 338 341 344 342 341 342 343 343 342 341 341 341 340 338 337 336 335 335 335 335 335 333 333 333 331 329 328 328 327 327 329 330 329 326 326 326 324 323 324 325 324 324 324 323 323 323 324 325 326
177 178 179 184 193 195 188 179 175 175 173 171 173 179 183 183 182 185 188 189 190 196 200 200 204 211 216 228 246 257 264 269 299 319 315 322 330 334 336 338 341 342 342 342 342 341 342 341 340 341 339 337 336 336 336 335 335 335 334 333 332 332 332 331 329 328 327 327 328 330 332 330 327 326 326 324 324 325 325 324 324 325 325 325 325 326 327 328
170 171 178 189 193 188 180 175 171 168 170 174 178 183 185 183 183 184 188 194 196 199 201 202 206 213 225 243 256 262 273 286 304 311 315 327 332 334 338 340 341 341 341 341 339 339 341 341 339 338 337 335 335 335 334 333 333 333 333 332 331 330 329 329 329 329 327 326 327 329 332 332 326 326 326 325 325 326 325 325 325 326 326 327 328 328 328 329
168 173 183 184 175 170 171 173 169 166 169 177 182 185 185 185 185 185 189 194 197 199 200 206 211 219 239 261 266 269 287 301 302 307 320 330 332 336 339 339 339 339 339 338 337 337 339 340 338 336 336 335 334 334 333 333 332 333 333 332 331 329 328 328 328 329 328 326 327 328 331 332 327 326 328 326 326 326 326 326 326 328 328 329 330 330 330 330
175 182 182 174 167 167 170 170 169 167 171 179 183 185 185 185 185 187 192 193 195 198 201 209 218 236 255 268 279 282 288 296 301 312 324 329 332 336 337 336 336 335 337 337 335 336 336 337 336 335 334 334 333 333 332 333 333 333 332 331 330 329 329 328 328 328 327 326 327 327 329 332 329 327 329 328 327 327 327 327 328 329 330 331 331 330 330 330
181 182 176 172 169 168 167 168 169 170 175 182 183 183 184 185 186 190 194 191 192 200 205 212 226 251 265 272 283 285 285 293 306 318 324 327 331 334 333 333 333 332 334 334 333 334 334 334 334 333 332 332 332 332 332 333 332 331 331 330 330 329 329 329 328 327 327 327 328 327 328 331 331 328 329 329 328 328 328 328 330 331 332 332 331 331 330 331
179 177 175 172 168 166 167 168 169 173 180 184 183 182 183 185 189 193 194 187 189 201 211 221 230 247 273 282 285 287 291 296 306 315 320 324 328 329 328 329 329 330 331 331 331 331 331 332 331 331 330 330 330 331 330 331 331 330 330 329 329 330 330 329 328 328 329 328 328 328 328 330 331 329 329 329 329 329 329 330 331 333 333 332 331 330 330 331
174 174 173 171 167 166 167 167 171 180 185 185 183 182 184 188 192 195 192 185 188 203 217 229 234 250 276 290 292 294 297 299 305 313 317 320 323 324 324 325 326 327 328 328 328 329 330 329 329 329 329 329 328 329 329 329 329 329 329 329 329 330 330 329 329 330 330 329 328 329 328 330 332 330 329 329 329 329 330 331 333 334 333 332 330 330 331 331
168 168 168 168 166 165 164 167 176 185 187 186 185 183 186 191 194 196 192 188 196 207 219 233 246 262 278 290 296 300 302 303 307 310 313 316 319 319 320 321 322 324 324 325 326 327 327 327 327 327 326 326 326 327 328 327 327 328 328 329 329 329 329 329 330 330 330 329 328 329 329 330 332 330 329 329 329 330 331 332 333 333 332 331 330 330 331 332
164 165 165 165 163 162 165 173 182 187 187 187 187 188 191 195 199 199 195 197 206 210 224 243 257 269 280 290 296 301 304 305 307 308 311 314 315 316 317 318 320 320 321 323 324 325 325 325 324 324 324 325 325 326 326 326 327 327 327 328 328 328 328 329 329 329 330 330 329 329 330 330 331 330 329 330 330 330 331 332 333 332 331 329 328 329 331 331
161 163 162 160 160 165 173 182 186 187 187 189 191 193 196 200 205 203 199 206 214 219 236 256 269 277 284 291 297 300 302 304 306 307 309 311 313 315 315 316 317 317 318 321 322 322 323 323 323 323 324 324 324 324 325 325 326 326 326 326 326 327 328 328 328 328 330 331 330 330 331 331 330 330 330 330 330 330 331 332 331 330 329 328 328 329 331 331
159 160 161 163 168 177 183 186 187 187 188 191 194 198 203 207 209 206 206 213 222 232 247 264 279 286 288 293 298 300 302 303 305 306 308 310 311 312 312 313 314 315 317 319 320 321 321 321 322 322 322 322 323 323 324 324 325 325 326 326 326 326 326 326 327 328 329 331 330 330 331 330 329 329 329 329 329 329 330 331 329 328 327 327 327 329 331 331
160 162 168 176 183 186 186 186 188 189 192 194 197 204 209 210 210 211 215 220 231 245 257 271 285 290 292 295 299 301 302 304 305 306 307 308 309 309 310 312 313 315 317 318 319 319 319 320 320 320 321 321 322 322 323 324 325 326 327 327 327 327 327 327 327 326 327 329 330 329 330 329 328 328 328 328 328 329 329 329 328 326 326 327 327 329 330 331
162 166 174 182 185 185 184 187 190 192 195 198 203 208 211 212 213 216 223 230 242 255 264 276 286 291 294 297 300 301 302 303 305 306 306 307 308 309 310 312 313 314 315 316 317 317 318 319 319 320 321 321 322 323 323 324 325 326 326 326 327 327 327 326 326 326 325 326 328 328 328 330 328 327 328 326 327 328 328 328 327 326 326 327 328 329 330 331
163 170 176 179 181 183 185 189 193 195 200 203 206 210 213 216 217 221 230 238 249 261 269 280 287 290 295 298 300 302 302 304 306 306 306 307 308 309 311 311 312 313 314 315 316 316 318 319 320 320 321 321 322 323 323 324 325 325 325 326 326 326 326 325 325 325 324 325 327 327 328 332 327 325 327 325 326 328 327 327 327 326 327 327 328 329 330 331
168 173 174 176 181 186 189 193 196 199 202 204 208 213 216 220 223 228 237 245 255 266 275 283 289 292 296 299 300 302 303 304 305 305 306 306 307 309 310 310 311 312 313 315 315 316 317 319 320 320 321 322 322 323 324 324 324 325 325 325 325 325 325 324 323 324 324 324 326 326 328 333 328 324 326 324 325 329 327 326 328 327 327 328 329 329 330 332
172 173 173 178 183 188 193 197 200 201 203 206 209 214 219 224 228 234 243 253 263 273 280 287 290 294 298 300 301 302 302 304 304 304 305 305 307 309 308 309 311 312 313 314 314 315 316 318 321 321 321 322 322 322 323 323 323 324 325 325 324 324 324 323 323 323 324 323 325 325 327 335 330 324 327 325 324 328 327 326 328 328 329 329 328 329 330 332
175 175 176 180 182 187 193 199 204 205 205 208 212 217 223 229 235 242 251 261 271 279 285 289 292 295 298 300 301 301 301 302 303 303 304 305 307 308 307 309 310 311 312 313 314 315 316 317 320 321 321 321 321 322 322 322 322 323 325 324 324 324 323 323 322 323 323 323 324 324 326 336 332 324 327 325 322 326 327 326 327 328 329 329 328 329 330 332
178 179 179 179 181 187 193 200 206 207 208 212 217 222 228 234 241 249 258 267 276 282 286 290 293 296 298 299 300 300 300 301 303 303 304 305 306 307 307 308 309 311 312 312 314 315 316 317 319 321 321 320 321 321 321 321 321 322 324 324 323 323 322 321 320 321 322 322 324 323 323 335 334 323 327 325 320 324 325 325 326 328 329 328 328 329 330 332
181 181 180 179 183 188 193 200 205 208 213 217 221 226 232 239 246 255 264 272 278 283 287 290 293 296 297 298 299 300 300 301 302 302 303 305 306 306 307 308 309 310 312 313 314 315 315 316 317 320 320 319 320 320 320 320 320 321 324 323 323 322 321 320 318 320 321 321 323 320 320 334 336 324 326 324 318 323 324 323 326 327 328 329 329 329 331 332
184 183 182 182 186 190 195 201 206 211 217 219 223 229 235 243 251 259 268 274 279 284 288 291 294 296 298 299 299 300 300 301 302 302 304 305 306 306 307 309 310 311 312 313 314 314 314 314 316 318 318 318 319 319 319 319 319 320 322 323 323 321 320 318 316 318 320 320 322 316 317 333 339 325 326 322 317 322 324 322 325 327 328 329 329 330 330 332
185 184 185 186 189 193 199 205 210 215 219 222 226 232 239 247 255 262 268 274 280 286 290 293 296 297 298 299 299 300 300 301 302 303 304 305 305 306 308 309 310 311 312 313 313 313 313 313 315 316 316 317 318 319 318 318 318 319 321 323 322 320 319 315 314 316 318 320 322 313 314 330 335 326 326 320 317 322 323 322 324 326 328 329 329 330 330 331
184 185 187 188 191 198 204 209 214 216 221 225 230 236 244 251 257 263 269 277 284 289 292 295 296 297 299 299 299 300 301 302 303 304 304 304 305 307 308 309 310 310 311 311 312 311 311 312 314 314 315 316 317 318 317 317 316 318 321 322 322 320 317 313 312 313 316 321 320 312 315 326 328 324 324 318 317 322 323 323 324 325 327 329 328 328 328 329
184 186 188 190 194 201 208 213 217 220 225 231 237 243 249 254 258 265 274 281 287 291 293 295 296 297 298 298 300 301 302 303 303 303 304 305 306 307 307 308 308 309 310 310 310 310 310 312 313 314 314 315 316 317 316 316 317 318 321 322 321 319 315 312 311 313 317 320 317 314 318 321 321 323 321 316 317 322 322 323 323 324 326 327 327 327 327 328
186 188 190 192 197 204 213 219 223 228 233 238 245 250 253 257 263 271 279 285 289 291 293 295 296 297 298 299 301 302 303 303 303 303 305 305 305 306 306 307 307 308 308 308 309 309 310 312 313 313 315 316 316 317 316 316 316 318 321 322 321 317 313 311 312 314 318 317 315 319 319 316 319 322 317 315 318 320 321 322 322 323 324 326 326 325 325 327
191 191 193 198 204 212 221 226 230 235 240 245 252 256 260 264 270 277 283 287 290 292 293 295 297 297 299 300 301 302 302 302 302 303 304 304 304 305 305 306 306 306 307 307 308 308 309 311 312 312 313 314 315 315 315 314 316 318 321 322 319 314 311 311 312 316 318 314 315 321 317 314 320 322 317 318 320 319 320 322 322 323 324 325 325 323 324 326
197 198 201 208 216 224 232 236 240 245 249 253 258 262 267 272 277 281 285 288 290 291 293 295 296 297 298 299 300 300 300 300 301 302 302 302 303 304 304 304 305 306 306 306 307 308 309 311 312 312 312 312 313 314 313 313 315 319 323 321 317 313 311 311 314 317 316 312 315 320 314 313 320 321 318 320 320 318 320 322 322 323 324 324 323 322 324 326
205 209 215 223 231 237 242 246 249 253 256 259 263 268 272 277 280 283 286 288 290 291 292 293 294 296 297 297 298 298 298 299 300 301 301 301 302 303 303 304 305 305 306 306 307 307 308 311 311 310 311 312 313 313 313 313 317 322 325 320 314 312 311 311 314 316 313 311 314 316 312 313 319 319 318 319 318 317 319 321 322 323 322 321 321 321 324 326
216 222 228 236 243 246 249 251 254 257 261 264 269 273 277 280 283 285 287 288 289 290 292 293 294 295 296 296 297 297 298 299 300 301 301 302 303 303 303 304 305 305 306 306 307 308 308 310 310 309 310 312 313 313 313 315 320 326 325 318 313 312 311 311 314 315 312 312 314 313 311 315 319 318 317 318 317 316 317 319 321 322 321 320 320 322 325 326
229 235 240 245 250 253 255 258 261 265 268 271 275 278 281 283 284 286 288 289 291 292 293 294 295 296 297 297 298 299 300 301 301 301 302 303 303 303 304 304 305 305 306 306 307 308 308 309 309 309 311 314 315 314 315 319 324 326 323 316 312 310 309 310 314 315 314 314 314 311 312 317 319 316 316 317 316 315 316 319 321 322 322 321 322 324 326 326
239 244 249 252 256 259 262 266 269 272 275 277 279 282 283 285 287 289 290 292 293 294 296 297 298 299 299 300 300 301 301 302 302 302 303 303 303 303 304 304 305 306 307 307 308 309 308 309 310 310 312 315 316 316 318 322 326 324 318 313 309 307 308 311 315 318 317 314 312 311 314 318 318 316 316 316 315 315 316 318 322 323 322 321 323 324 325 325
246 252 257 260 263 266 269 273 276 278 281 283 284 286 287 289 291 292 294 296 297 298 299 300 300 301 302 302 302 302 302 302 302 303 303 303 303 303 303 305 306 307 308 308 308 308 308 309 310 310 312 316 318 319 321 325 325 320 314 311 308 308 310 312 316 319 316 312 311 312 314 315 315 315 315 315 315 315 316 319 324 324 322 321 323 324 324 323